This is the latest recevied weather packets stored in our database for station/object KB9PVH-3. If no packets are shown the sender has not sent any weather packets the latest 10 day(s).
| Time | Temp. | Humidity | Pressure | Rain* | Wind** | Luminosity | Snow |
|---|---|---|---|---|---|---|---|
| 1778131987 | 3.33° C | 62% | 1016.9 hPa | 0 mm | - | - | - |
| 1778130937 | 3.33° C | 61% | 1017.2 hPa | 0 mm | - | - | - |
| 1778129887 | 3.89° C | 59% | 1017.4 hPa | 0 mm | - | - | - |
| 1778128838 | 4.44° C | 58% | 1017.2 hPa | 0 mm | - | - | - |
| 1778127787 | 5° C | 55% | 1017.2 hPa | 0 mm | - | - | - |
| 1778126737 | 5.56° C | 54% | 1017.1 hPa | 0 mm | - | - | - |
| 1778124640 | 6.11° C | 55% | 1017.2 hPa | 0 mm | - | - | - |
| 1778121491 | 5° C | 58% | 1017.1 hPa | 0 mm | - | - | - |
| 1778120441 | 5° C | 59% | 1016.8 hPa | 0 mm | - | - | - |
| 1778119391 | 5.56° C | 57% | 1016.6 hPa | 0 mm | - | - | - |
| 1778118338 | 5.56° C | 56% | 1016.5 hPa | 0 mm | - | - | - |
| 1778117287 | 6.11° C | 54% | 1016.3 hPa | 0 mm | - | - | - |
| 1778115191 | 7.22° C | 51% | 1016 hPa | 0 mm | - | - | - |
| 1778114141 | 8.33° C | 47% | 1015.9 hPa | 0 mm | - | - | - |
| 1778113091 | 9.44° C | 45% | 1015.5 hPa | 0 mm | - | - | - |
| 1778112039 | 10° C | 45% | 1015.4 hPa | 0 mm | - | - | - |
| 1778109939 | 10° C | 46% | 1015.5 hPa | 0 mm | - | - | - |
| 1778108891 | 10° C | 47% | 1015.2 hPa | 0 mm | - | - | - |
| 1778105741 | 11.11° C | 44% | 1014.7 hPa | 0 mm | - | - | - |
| 1778104688 | 11.11° C | 41% | 1014.8 hPa | 0 mm | - | - | - |
| 1778103639 | 11.67° C | 43% | 1014.8 hPa | 0 mm | - | - | - |
| 1778102589 | 11.11° C | 43% | 1014.6 hPa | 0 mm | - | - | - |
| 1778100488 | 11.67° C | 43% | 1014.8 hPa | 0 mm | - | - | - |
| 1778097338 | 12.78° C | 39% | 1014.6 hPa | 0 mm | - | - | - |
| 1778093138 | 13.33° C | 39% | 1014.8 hPa | 0 mm | - | - | - |
* Rain latest hour (hover to see other rain measurements)
** Current wind speed in m/s (hover to see current wind gust speed)